Location: Ferchesar
(52.6477°N, 12.4298°E)
Time: 04:11:39
(UTC+01:00)

Tiros 1 - Pass Details

Date: 08 December 2021
Orbit: 629 x 664 km, 48.4° (Epoch: 21 January)

Event Time Altitude Azimuth Distance (km) Brightness Sun altitude
Rises 23:13:10 0° 274° (W) 2,949 - -58.7°
Reaches altitude 10° 23:16:33 10° 249° (WSW) 2,044 - -58.9°
Maximum altitude 23:18:54 14° 219° (SW) 1,807 - -59.0°
Drops below altitude 10° 23:21:15 10° 189° (S) 2,049 - -59.1°
Sets 23:24:40 0° 164° (SSE) 2,964 - -59.3°
